1499526000.89,46097,18.31,74086.5,6.85,6.75,6.75,0,*7A
1499526002.07,46098,18.31,74086.5,6.89,6.79,6.79,0,*79
1499526003.33,46099,18.31,74080.5,6.87,6.87,6.91,0,*71
1499526004.53,46100,18.31,74074.0,6.87,6.83,6.75,0,*7E
1499526005.78,46101,18.31,74072.8,6.87,6.61,6.61,0,*76
1499526006.96,46102,18.31,74078.0,6.85,6.29,6.29,0,*77
1499526008.21,46103,18.31,74082.0,6.87,6.39,6.39,0,*74
1499526009.42,46104,18.31,74080.5,6.83,6.13,6.11,0,*75
1499526010.6,46105,18.31,74076.5,6.83,6.11,6.03,0,*75
1499526011.78,46106,18.25,74082.3,6.83,6.11,6.11,0,*75
1499526013.01,46107,18.31,74086.5,6.83,5.81,5.81,0,*74
1499526014.26,46108,18.31,74088.8,6.81,5.81,5.89,0,*71
1499526015.51,46109,18.31,74090.0,6.81,5.89,5.89,0,*78
1499526016.71,46110,18.31,74092.5,6.81,6.11,6.11,0,*70
1499526017.91,46111,18.31,74094.3,6.81,6.29,6.29,0,*71
1499526019.09,46112,18.31,74088.0,6.79,6.11,6.21,0,*76
1499526020.27,46113,18.31,74088.0,6.79,6.33,6.33,0,*74
1499526021.5,46114,18.31,74090.3,6.79,6.43,6.43,0,*73
1499526022.71,46115,18.31,74090.8,6.79,6.33,6.47,0,*71
1499526023.94,46116,18.31,74086.8,6.79,6.47,6.47,0,*71
1499526025.19,46117,18.31,74094.8,6.81,6.35,6.39,0,*7B
1499526026.44,46118,18.31,74092.3,6.81,6.13,6.13,0,*78
1499526027.65,46119,18.31,74088.5,6.83,6.35,6.29,0,*76
1499526028.88,46120,18.31,74094.3,6.81,6.17,6.25,0,*72
1499526030.14,46121,18.31,74092.8,6.81,6.51,6.51,0,*72
1499526031.38,46122,18.31,74092.3,6.81,6.57,6.61,0,*74
1499526032.62,46123,18.31,74094.5,6.81,6.69,6.69,0,*70
1499526033.86,46124,18.31,74096.0,6.81,6.69,6.69,0,*77
1499526035.11,46125,18.31,74090.3,6.81,6.35,6.39,0,*7A
1499526036.37,46126,18.31,74100.5,6.81,6.51,6.51,0,*75
1499526037.63,46127,18.25,74086.8,6.81,6.51,6.51,0,*74
1499526038.83,46128,18.31,74084.5,6.85,4.79,4.45,0,*70
1499526040.09,46129,18.31,74090.0,6.81,3.67,3.67,0,*7A
1499526041.32,46130,18.31,74092.8,6.75,4.59,4.59,0,*79
1499526042.52,46131,18.31,74102.8,6.71,4.57,4.63,0,*7B
1499526043.7,46132,18.31,74092.8,6.71,5.33,5.33,0,*7F
1499526044.95,46133,18.31,74078.5,6.73,5.81,5.81,0,*7C
1499526046.18,46134,18.31,74086.8,6.71,5.89,5.81,0,*71
1499526047.42,46135,18.31,74090.3,6.71,5.93,5.93,0,*78
1499526048.65,46136,18.31,74084.0,6.71,6.13,6.17,0,*7F
1499526049.86,46137,18.31,74080.3,6.73,6.33,6.33,0,*78
1499526051.1,46138,18.31,74072.5,6.71,6.47,6.51,0,*72
1499526052.26,46139,18.31,74072.0,6.79,6.79,6.79,0,*7C
1499526053.51,46140,18.31,74076.5,6.73,6.65,6.53,0,*7D
1499526054.72,46141,18.31,74072.5,6.73,6.21,6.21,0,*79
1499526055.9,46142,18.31,74070.0,6.75,6.07,6.07,0,*7C
1499526057.12,46143,18.31,74066.5,6.73,6.11,6.17,0,*7D
1499526058.38,46144,18.25,74060.3,6.73,6.39,6.43,0,*71
1499526059.62,46145,18.31,74064.8,6.75,6.51,6.51,0,*7B
1499526060.82,46146,18.31,74062.8,6.75,6.65,6.79,0,*75
1499526061.99,46147,18.31,74060.8,6.79,6.83,6.83,0,*75
1499526063.18,46148,18.31,74062.5,6.79,6.91,6.83,0,*79
1499526064.35,46149,18.31,74062.8,6.79,6.83,6.83,0,*7B
1499526065.52,46150,18.31,74066.0,6.79,6.79,6.79,0,*73
1499526066.68,46151,18.31,74064.3,6.79,6.83,6.83,0,*72
1499526067.91,46152,18.31,74062.5,6.81,6.87,6.93,0,*73
1499526069.08,46153,18.31,74064.3,6.83,6.83,6.93,0,*74
1499526070.29,46154,18.31,74064.5,6.83,6.87,6.93,0,*77
1499526071.49,46155,18.25,74066.5,6.83,6.87,6.93,0,*76
1499526072.72,46156,18.31,74078.5,6.85,6.91,6.91,0,*76
1499526073.91,46157,18.31,74084.3,6.81,6.79,6.79,0,*73
1499526075.09,46158,18.31,74080.0,6.83,6.79,6.79,0,*7E
1499526076.32,46159,18.31,74080.3,6.85,6.43,6.51,0,*7A
1499526077.58,46160,18.31,74086.5,6.87,6.51,6.51,0,*71
1499526078.81,46161,18.31,74088.3,6.85,6.39,6.39,0,*72
1499526080.04,46162,18.31,74090.8,6.83,6.39,6.39,0,*77
1499526081.27,46163,18.31,74092.8,6.83,6.47,6.51,0,*71
1499526082.51,46164,18.25,74090.8,6.83,6.47,6.35,0,*74
1499526083.75,46165,18.31,74094.5,6.83,6.47,6.47,0,*70
1499526084.99,46166,18.31,74092.3,6.83,6.51,6.47,0,*74
1499526086.22,46167,18.31,74096.8,6.83,6.47,6.51,0,*75
1499526087.45,46168,18.31,74098.5,6.85,6.65,6.73,0,*7C
1499526088.62,46169,18.31,74096.3,6.85,6.75,6.75,0,*7A
1499526089.83,46170,18.31,74098.5,6.85,6.83,6.91,0,*71
1499526091.08,46171,18.31,74100.0,6.87,6.91,6.91,0,*71
1499526092.31,46172,18.31,74098.0,6.87,6.91,6.97,0,*74
1499526093.51,46173,18.31,74100.8,6.89,6.91,6.93,0,*7F
1499526094.71,46174,18.31,74102.5,6.87,6.75,6.83,0,*7D
1499526095.91,46175,18.31,74096.8,6.87,6.75,6.83,0,*7C
1499526097.14,46176,18.31,74092.5,6.87,6.83,6.87,0,*72
1499526098.37,46177,18.31,74098.0,6.89,6.65,6.57,0,*78
1499526099.6,46178,18.31,74098.3,6.89,6.47,6.47,0,*76
1499526100.81,46179,18.31,74096.0,6.89,6.69,6.75,0,*7A
1499526101.98,46180,18.31,74100.5,6.89,6.79,6.79,0,*71
1499526103.16,46181,18.31,74100.8,6.89,6.93,6.93,0,*70
1499526104.33,46182,18.31,74106.0,6.89,7.01,7.05,0,*77
1499526105.56,46183,18.31,74096.0,6.91,7.09,7.15,0,*76
1499526106.8,46184,18.25,74102.0,6.89,7.27,7.27,0,*75
1499526108.0,46185,18.31,74102.8,6.91,7.05,7.05,0,*7D
1499526109.22,46186,18.31,74092.3,6.93,6.57,6.57,0,*7C
1499526110.47,46187,18.31,74088.8,6.91,6.61,6.69,0,*77
1499526111.69,46188,18.31,74092.8,6.93,6.69,6.61,0,*7A
1499526112.91,46189,18.31,74092.5,6.93,6.61,6.61,0,*73
1499526114.16,46190,18.31,74096.5,6.91,6.61,6.61,0,*79
1499526115.39,46191,18.31,74102.3,6.91,6.73,6.79,0,*72
1499526116.64,46192,18.31,74098.5,6.91,6.69,6.69,0,*7B
1499526117.87,46193,18.31,74088.3,6.93,6.35,6.39,0,*74
1499526119.08,46194,18.31,74090.8,6.91,5.99,5.99,0,*7D
1499526120.26,46195,18.31,74080.0,6.89,5.37,5.29,0,*7A
1499526121.46,46196,18.31,74084.3,6.89,5.27,5.19,0,*7B
1499526122.64,46197,18.31,74090.5,6.89,5.07,5.15,0,*74
1499526123.82,46198,18.31,74070.8,6.85,5.23,5.15,0,*71
1499526125.02,46199,18.25,74072.0,6.87,5.59,5.49,0,*76
1499526126.25,46200,18.31,74072.5,6.85,5.51,5.51,0,*76
1499526127.47,46201,18.31,74074.8,6.83,4.67,4.59,0,*7C
1499526128.7,46202,18.31,74070.0,6.81,4.59,4.49,0,*71
1499526129.95,46203,18.31,74076.0,6.81,4.79,4.75,0,*7D
1499526131.13,46204,18.31,74076.8,6.75,4.57,4.45,0,*7E
1499526132.34,46205,18.31,74074.3,6.75,4.59,4.45,0,*71
1499526133.52,46206,18.31,74064.5,6.75,4.57,4.57,0,*7F
1499526134.72,46207,18.31,74040.3,6.73,4.23,4.07,0,*7E
1499526135.92,46208,18.25,74024.3,6.69,4.19,4.19,0,*7C
1499526137.13,46209,18.31,74056.5,6.69,5.23,5.11,0,*7C
1499526138.31,46210,18.31,74068.3,6.67,5.29,5.23,0,*71
1499526139.53,46211,18.31,74054.8,6.69,5.77,5.71,0,*72
1499526140.73,46212,18.31,74060.0,6.67,6.07,6.13,0,*7C
1499526141.92,46213,18.31,74072.0,6.69,5.45,5.45,0,*76
1499526143.13,46214,18.31,74072.3,6.69,5.71,5.71,0,*71
1499526144.36,46215,18.31,74062.8,6.69,6.35,6.29,0,*7D
1499526145.6,46216,18.31,74078.3,6.69,6.61,6.61,0,*73
1499526146.84,46217,18.31,74072.0,6.71,5.89,5.89,0,*7B
1499526148.02,46218,18.31,74076.3,6.71,5.59,5.67,0,*79
1499526149.2,46219,18.31,74068.3,6.71,5.71,5.71,0,*75
1499526150.42,46220,18.31,74060.3,6.71,5.55,5.55,0,*7F
1499526151.65,46221,18.31,74054.0,6.71,5.89,5.89,0,*7E
1499526152.82,46222,18.31,74066.0,6.71,6.07,6.07,0,*7D
1499526154.05,46223,18.31,74060.0,6.71,6.17,6.17,0,*7C
1499526155.31,46224,18.31,74056.3,6.73,5.93,5.93,0,*79
1499526156.48,46225,18.31,74052.5,6.71,4.89,4.89,0,*7A
1499526157.69,46226,18.31,74066.3,6.71,4.63,4.57,0,*7E
1499526158.91,46227,18.31,74064.8,6.67,4.71,4.53,0,*7F
1499526160.13,46228,18.31,74050.3,6.69,4.63,4.49,0,*76
1499526161.38,46229,18.31,74052.5,6.65,4.67,4.59,0,*7E
1499526162.63,46230,18.31,74050.5,6.65,4.79,4.79,0,*7B
1499526163.84,46231,18.31,74046.0,6.65,4.57,4.57,0,*7A
1499526165.01,46232,18.31,74052.5,6.63,4.19,4.11,0,*77
1499526166.27,46233,18.31,74046.5,6.61,4.05,3.97,0,*70
1499526167.45,46234,18.31,74054.8,6.59,4.15,4.15,0,*70
1499526168.64,46235,18.31,74054.8,6.59,4.41,4.41,0,*71
1499526169.85,46236,18.31,74062.5,6.57,3.93,3.89,0,*77
1499526171.1,46237,18.31,74042.5,6.53,2.81,2.69,0,*7F
1499526172.3,46238,18.31,74036.0,6.49,3.71,3.63,0,*7E
1499526173.54,46239,18.31,74056.5,6.49,4.05,4.05,0,*7C
1499526174.72,46240,18.31,74058.0,6.49,4.15,4.15,0,*72
1499526175.88,46241,18.31,74050.5,6.45,4.49,4.49,0,*7F
1499526177.09,46242,18.31,74036.3,6.45,4.59,4.53,0,*76
1499526178.35,46243,18.31,74036.8,6.47,5.01,4.93,0,*75
1499526179.55,46244,18.31,74050.5,6.47,4.85,4.81,0,*7C
1499526180.72,46245,18.31,74048.3,6.45,4.85,4.85,0,*7B
1499526181.89,46246,18.31,74050.0,6.45,4.85,4.81,0,*7C
1499526183.07,46247,18.31,74054.8,6.45,4.53,4.49,0,*72
1499526184.28,46248,18.31,74056.8,6.43,4.27,4.33,0,*75
1499526185.45,46249,18.31,74052.8,6.45,4.23,4.11,0,*76
1499526186.65,46250,18.31,74048.8,6.43,4.07,4.07,0,*79
1499526187.88,46251,18.31,74048.3,6.43,4.07,3.97,0,*76
1499526189.09,46252,18.31,74060.5,6.41,4.11,4.01,0,*78
1499526190.26,46253,18.31,74064.0,6.41,4.11,4.11,0,*78
1499526191.44,46254,18.31,74056.3,6.41,4.45,4.45,0,*7F
1499526192.62,46255,18.31,74068.3,6.41,4.45,4.45,0,*7E
1499526193.82,46256,18.31,74064.3,6.39,4.57,4.53,0,*76
1499526195.06,46257,18.31,74068.5,6.39,4.85,4.79,0,*70
1499526196.26,46258,18.31,74070.0,6.37,4.59,4.53,0,*78
1499526197.47,46259,18.31,74068.8,6.39,4.41,4.33,0,*78
1499526198.7,46260,18.31,74064.0,6.37,4.05,4.05,0,*79
1499526199.87,46261,18.31,74060.3,6.37,4.15,4.11,0,*7C
1499526201.08,46262,18.31,74052.0,6.35,4.41,4.41,0,*79
1499526202.34,46263,18.31,74046.3,6.31,4.79,4.71,0,*74
1499526203.52,46264,18.31,74042.0,6.37,5.07,5.19,0,*72
1499526204.69,46265,18.31,74040.5,6.37,5.29,5.29,0,*7C
1499526205.88,46266,18.31,74042.0,6.37,5.23,5.23,0,*7F
1499526207.05,46267,18.31,74042.8,6.37,4.85,4.85,0,*7E
1499526208.23,46268,18.31,74042.8,6.37,5.33,5.41,0,*74
1499526209.41,46269,18.31,74038.8,6.37,5.19,5.19,0,*70
1499526210.59,46270,18.31,74034.0,6.37,5.07,5.07,0,*78
1499526211.85,46271,18.31,74048.5,6.39,4.75,4.67,0,*74
1499526213.03,46272,18.31,74058.3,6.37,5.29,5.23,0,*70
1499526214.26,46273,18.31,74052.8,6.37,5.01,5.01,0,*7B
1499526215.45,46274,18.31,74058.0,6.37,5.23,5.19,0,*75
1499526216.62,46275,18.31,74066.8,6.37,5.33,5.29,0,*76
1499526217.85,46276,18.31,74062.0,6.37,5.01,5.05,0,*7A
1499526219.02,46277,18.31,74066.5,6.37,5.29,5.33,0,*74
1499526220.23,46278,18.31,74074.5,6.39,5.15,5.23,0,*7B
1499526221.4,46279,18.31,74072.3,6.37,5.29,5.33,0,*7A
1499526222.59,46280,18.31,74070.0,6.37,5.19,5.19,0,*77
1499526223.85,46281,18.31,74074.8,6.39,4.93,4.93,0,*78
1499526225.08,46282,18.31,74066.8,6.37,4.75,4.63,0,*72
1499526226.34,46283,18.31,74064.8,6.39,4.63,4.63,0,*7A
1499526227.52,46284,18.31,74070.3,6.37,4.53,4.53,0,*73
1499526228.75,46285,18.31,74064.5,6.37,4.31,4.31,0,*72
1499526229.94,46286,18.25,74054.3,6.37,4.37,4.37,0,*71
1499526231.15,46287,18.25,74054.3,6.31,4.33,4.33,0,*76
1499526232.35,46288,18.31,74058.5,6.31,4.45,4.33,0,*78
1499526233.56,46289,18.31,74050.8,6.31,4.33,4.27,0,*7D
1499526234.75,46290,18.31,74046.8,6.31,4.49,4.49,0,*70
1499526236.02,46291,18.31,74052.5,6.31,4.71,4.71,0,*71
1499526237.28,46292,18.31,74048.0,6.31,4.79,4.67,0,*7D
1499526238.51,46293,18.31,74056.8,6.31,4.57,4.59,0,*7D
1499526239.74,46294,18.31,74056.5,6.29,4.79,4.75,0,*71
1499526240.97,46295,18.31,74060.5,6.29,4.79,4.79,0,*7C
1499526242.15,46296,18.31,74056.8,6.29,4.89,4.89,0,*7F
1499526243.33,46297,18.31,74058.0,6.29,4.89,4.89,0,*7E
1499526244.53,46298,18.31,74058.5,6.31,5.07,5.15,0,*7B
1499526245.79,46299,18.31,74054.3,6.31,4.97,4.93,0,*7D
1499526247.03,46300,18.31,74052.5,6.31,4.85,4.79,0,*7B
1499526248.26,46301,18.31,74046.3,6.31,4.85,4.93,0,*7E
1499526249.5,46302,18.25,74046.5,6.29,4.93,4.93,0,*73
1499526250.76,46303,18.31,74046.3,6.31,4.97,4.97,0,*7B
1499526251.96,46304,18.31,74052.3,6.31,4.85,4.85,0,*7C
1499526253.19,46305,18.31,74056.8,6.29,4.79,4.67,0,*7B
1499526254.43,46306,18.31,74054.5,6.29,4.63,4.63,0,*77
1499526255.63,46307,18.31,74060.0,6.31,4.57,4.57,0,*7F
1499526256.84,46308,18.31,74054.3,6.27,4.57,4.45,0,*74
1499526258.05,46309,18.25,74054.3,6.27,4.45,4.53,0,*71
1499526259.26,46310,18.31,74058.8,6.29,4.63,4.57,0,*77
1499526260.5,46311,18.25,74054.5,6.27,5.05,5.11,0,*7A
1499526261.69,46312,18.31,74044.0,6.29,5.23,5.23,0,*72
1499526262.92,46313,18.31,74050.5,6.29,5.05,5.05,0,*73
1499526264.19,46314,18.31,74038.3,6.27,4.93,4.93,0,*7A
1499526265.39,46315,18.31,74032.8,6.29,4.93,4.89,0,*7E
1499526266.6,46316,18.31,74048.8,6.27,4.81,4.81,0,*78
1499526267.86,46317,18.31,74058.5,6.27,4.67,4.67,0,*79
1499526269.12,46318,18.31,74042.5,6.27,4.67,4.67,0,*76
1499526270.38,46319,18.31,74048.0,6.27,4.63,4.67,0,*73
1499526271.64,46320,18.31,74050.0,6.27,4.67,4.63,0,*79
1499526272.88,46321,18.31,74052.0,6.29,4.63,4.63,0,*72
1499526274.06,46322,18.31,74054.0,6.25,4.85,4.89,0,*71
1499526275.27,46323,18.31,74046.5,6.25,4.97,4.89,0,*73
1499526276.51,46324,18.25,74048.0,6.25,4.71,4.63,0,*78
1499526277.78,46325,18.31,74060.8,6.27,4.79,4.75,0,*74
1499526279.02,46326,18.31,74056.8,6.23,4.89,4.97,0,*70
1499526280.23,46327,18.31,74064.8,6.25,5.07,5.01,0,*7E
1499526281.47,46328,18.31,74066.8,6.25,4.59,4.59,0,*77
1499526282.66,46329,18.31,74060.5,6.25,5.11,5.11,0,*76
1499526283.87,46330,18.31,74044.0,6.25,5.41,5.51,0,*7F
1499526285.1,46331,18.31,74040.8,6.25,5.55,5.55,0,*7F
1499526286.29,46332,18.31,74054.8,6.25,5.19,5.11,0,*74
1499526287.54,46333,18.31,74056.5,6.29,5.01,5.01,0,*71
1499526288.75,46334,18.31,74062.3,6.27,5.23,5.15,0,*7D
1499526290.01,46335,18.31,74050.5,6.27,5.01,5.05,0,*7D
1499526291.24,46336,18.31,74046.3,6.27,5.27,5.33,0,*7F
1499526292.47,46337,18.31,74042.8,6.27,5.49,5.55,0,*76
1499526293.73,46338,18.31,74038.0,6.27,5.73,5.73,0,*74
1499526294.95,46339,18.31,74038.0,6.27,6.07,6.13,0,*70
1499526296.15,46340,18.31,74032.0,6.29,6.03,6.03,0,*75
1499526297.34,46341,18.31,74034.3,6.29,6.25,6.33,0,*73
1499526298.52,46342,18.31,74050.8,6.29,6.33,6.33,0,*77
1499526299.76,46343,18.31,74062.0,6.35,6.13,6.25,0,*7E
1499526301.01,46344,18.31,74048.0,6.35,6.13,6.13,0,*7C
1499526302.27,46345,18.31,74036.5,6.35,5.89,5.89,0,*7D
1499526303.52,46346,18.31,74040.3,6.35,5.81,5.89,0,*76
1499526304.73,46347,18.31,74044.3,6.37,6.17,6.25,0,*7C
1499526305.96,46348,18.31,74048.8,6.37,6.39,6.35,0,*7E
1499526307.14,46349,18.31,74048.5,6.37,6.25,6.33,0,*74
1499526308.39,46350,18.31,74054.8,6.39,6.43,6.53,0,*74
1499526309.65,46351,18.25,74058.3,6.43,6.53,6.43,0,*78
1499526310.85,46352,18.31,74066.8,6.43,5.99,5.95,0,*76
1499526312.04,46353,18.31,74060.5,6.41,5.19,5.19,0,*79
1499526313.25,46354,18.31,74064.5,6.41,4.81,4.79,0,*79
1499526314.43,46355,18.31,74066.8,6.41,4.57,4.57,0,*7F
1499526315.65,46356,18.31,74060.8,6.39,3.63,3.53,0,*70
1499526316.85,46357,18.31,74044.3,6.37,3.55,3.49,0,*71
1499526318.05,46358,18.31,74048.5,6.31,3.63,3.55,0,*70
1499526319.31,46359,18.31,74042.0,6.31,3.41,3.45,0,*70
1499526320.55,46360,18.31,74038.3,6.29,3.41,3.41,0,*77
1499526321.81,46361,18.31,74034.0,6.27,3.71,3.71,0,*78
1499526323.0,46362,18.31,74024.0,6.25,4.15,4.15,0,*79
1499526324.26,46363,18.31,74006.8,6.23,4.79,4.79,0,*7E
1499526325.44,46364,18.31,74022.8,6.25,5.41,5.33,0,*7A
1499526326.67,46365,18.31,74034.3,6.25,5.55,5.55,0,*7E
1499526327.88,46366,18.31,74044.0,6.25,5.59,5.55,0,*71
1499526329.09,46367,18.31,74040.5,6.27,5.71,5.71,0,*7E
1499526330.33,46368,18.31,74046.5,6.27,4.93,4.81,0,*72
1499526331.51,46369,18.31,74046.5,6.25,4.89,4.89,0,*72
1499526332.7,46370,18.31,74052.5,6.25,5.11,5.19,0,*72
1499526333.95,46371,18.31,74056.3,6.25,5.01,5.01,0,*7B
1499526335.14,46372,18.31,74060.8,6.25,4.37,4.37,0,*78
1499526336.35,46373,18.31,74066.8,6.23,4.27,4.19,0,*72
1499526337.62,46374,18.31,74064.8,6.23,4.63,4.71,0,*7B
1499526338.8,46375,18.31,74036.0,6.25,5.41,5.41,0,*7F
1499526339.98,46376,18.31,74046.5,6.25,5.41,5.41,0,*7C
1499526341.25,46377,18.31,74044.0,6.23,4.71,4.71,0,*7B
1499526342.49,46378,18.31,74030.5,6.23,4.31,4.41,0,*73
1499526343.74,46379,18.31,74034.0,6.23,4.97,5.07,0,*7D
1499526344.95,46380,18.25,74036.0,6.23,5.67,5.71,0,*74
1499526346.19,46381,18.31,74048.8,6.23,5.93,6.03,0,*78
1499526347.43,46382,18.25,74042.3,6.25,5.93,5.89,0,*7C
1499526348.68,46383,18.31,74040.8,6.23,5.55,5.51,0,*74
1499526349.88,46384,18.31,74044.0,6.25,5.45,5.51,0,*74
1499526351.07,46385,18.31,74040.3,6.25,5.41,5.33,0,*75
1499526352.26,46386,18.31,74046.3,6.25,5.23,5.19,0,*7A
1499526353.48,46387,18.31,74046.3,6.25,5.07,5.01,0,*74
1499526354.72,46388,18.31,74054.0,6.25,4.97,4.97,0,*7D
1499526355.94,46389,18.31,74048.3,6.25,5.07,5.01,0,*7A
1499526357.13,46390,18.31,74044.0,6.25,5.11,5.07,0,*73
1499526358.32,46391,18.31,74034.3,6.25,5.23,5.19,0,*7C
1499526359.52,46392,18.31,74038.0,6.23,5.29,5.29,0,*70
1499526360.75,46393,18.25,74042.0,6.25,5.55,5.55,0,*77
1499526361.94,46394,18.31,74042.5,6.25,5.67,5.67,0,*70
1499526363.17,46395,18.31,74040.8,6.25,5.77,5.77,0,*71
1499526364.35,46396,18.31,74046.5,6.25,5.71,5.71,0,*72
1499526365.58,46397,18.31,74038.3,6.27,5.71,5.81,0,*7E
1499526366.76,46398,18.31,74038.0,6.29,5.71,5.71,0,*70
1499526367.99,46399,18.31,74032.5,6.29,6.13,6.13,0,*71
1499526369.18,46400,18.31,74040.8,6.29,6.33,6.33,0,*76
1499526370.37,46401,18.31,74048.3,6.29,6.33,6.33,0,*77
1499526371.61,46402,18.31,74062.0,6.31,6.33,6.35,0,*7B
1499526372.83,46403,18.31,74066.3,6.37,6.39,6.39,0,*7A
1499526374.01,46404,18.31,74064.8,6.37,5.71,5.71,0,*7D
1499526375.19,46405,18.25,74060.0,6.37,5.63,5.63,0,*7C
1499526376.41,46406,18.31,74058.0,6.35,5.55,5.63,0,*78
1499526377.62,46407,18.31,74048.5,6.35,5.29,5.23,0,*76
1499526378.84,46408,18.31,74044.5,6.35,5.33,5.23,0,*72
1499526380.01,46409,18.31,74046.0,6.37,5.33,5.33,0,*70
1499526381.21,46410,18.31,74042.0,6.35,5.45,5.45,0,*7A
1499526382.44,46411,18.31,74042.5,6.31,5.07,5.05,0,*7D
1499526383.67,46412,18.31,74050.0,6.31,4.57,4.59,0,*72
1499526384.88,46413,18.31,74058.3,6.31,5.07,5.15,0,*7E
1499526386.1,46414,18.31,74056.8,6.31,5.29,5.27,0,*74
1499526387.3,46415,18.25,74050.8,6.31,5.29,5.29,0,*7B
1499526388.48,46416,18.31,74048.0,6.29,5.11,5.11,0,*71
1499526389.71,46417,18.31,74042.8,6.29,5.05,5.05,0,*70
1499526390.88,46418,18.31,74038.5,6.29,5.45,5.45,0,*7F
1499526392.12,46419,18.31,74048.0,6.29,5.01,4.93,0,*74
1499526393.38,46420,18.31,74056.3,6.31,4.97,5.05,0,*77
1499526394.61,46421,18.31,74060.3,6.27,4.81,4.79,0,*7C
1499526395.88,46422,18.31,74048.3,6.27,4.75,4.75,0,*78
1499526397.15,46423,18.31,74052.0,6.27,4.75,4.75,0,*79
1499526398.41,46424,18.31,74058.5,6.27,4.75,4.75,0,*7E
1499526399.65,46425,18.31,74058.5,6.25,4.79,4.79,0,*7D
1499526400.89,46426,18.31,74052.0,6.25,4.79,4.71,0,*76
1499526402.15,46427,18.31,74060.5,6.23,4.63,4.59,0,*70
1499526403.36,46428,18.31,74056.3,6.23,3.93,3.89,0,*7D
1499526404.6,46429,18.31,74052.0,6.23,3.59,3.49,0,*76
1499526405.83,46430,18.31,74052.0,6.21,3.33,3.33,0,*7D
1499526407.07,46431,18.31,74054.5,6.19,3.41,3.33,0,*72
1499526408.27,46432,18.31,74042.8,6.15,4.07,4.05,0,*7A
1499526409.49,46433,18.31,74042.8,6.17,4.57,4.57,0,*7B
1499526410.72,46434,18.31,74048.0,6.19,4.59,4.59,0,*72
1499526411.96,46435,18.31,74050.8,6.21,4.75,4.75,0,*78
1499526413.17,46436,18.31,74054.3,6.17,4.33,4.41,0,*7B
1499526414.38,46437,18.31,74044.5,6.15,4.07,4.05,0,*7F
1499526415.55,46438,18.25,74046.8,6.15,4.19,4.19,0,*72
1499526416.79,46439,18.31,74050.8,6.13,4.05,4.07,0,*77
1499526418.05,46440,18.31,74058.3,6.13,4.75,4.75,0,*7B
1499526419.31,46441,18.31,74060.0,6.13,4.79,4.79,0,*7A
1499526420.56,46442,18.31,74060.3,6.13,4.59,4.59,0,*79
1499526421.77,46443,18.31,74056.8,6.09,4.45,4.49,0,*7F
1499526423.02,46444,18.31,74058.8,6.13,4.67,4.63,0,*7B
1499526424.28,46445,18.31,74054.0,6.13,4.63,4.75,0,*79
1499526425.48,46446,18.31,74048.5,6.13,4.85,4.89,0,*71
1499526426.68,46447,18.31,74044.8,6.13,5.29,5.29,0,*7C
1499526427.88,46448,18.31,74044.0,6.13,5.45,5.45,0,*73
1499526429.08,46449,18.31,74050.3,6.17,5.71,5.67,0,*71
1499526430.27,46450,18.31,74052.0,6.15,5.99,6.03,0,*7C
1499526431.47,46451,18.31,74052.5,6.17,6.07,6.07,0,*7F
1499526432.73,46452,18.31,74052.3,6.17,6.13,6.13,0,*7C
1499526433.94,46453,18.31,74054.0,6.17,6.21,6.21,0,*7D
1499526435.13,46454,18.31,74052.8,6.21,6.21,6.21,0,*7F
1499526436.32,46455,18.31,74048.0,6.21,6.25,6.25,0,*7E
1499526437.56,46456,18.31,74054.3,6.25,6.35,6.35,0,*79
1499526438.81,46457,18.31,74056.0,6.25,6.35,6.35,0,*78
1499526440.02,46458,18.31,74058.0,6.23,6.21,6.21,0,*71
1499526441.23,46459,18.25,74044.0,6.25,6.11,6.13,0,*74
1499526442.47,46460,18.31,74046.3,6.25,6.13,6.13,0,*7C
1499526443.7,46461,18.31,74048.0,6.25,6.13,6.13,0,*7D
1499526444.92,46462,18.31,74048.5,6.27,6.25,6.25,0,*7C
1499526446.13,46463,18.31,74056.3,6.27,6.29,6.29,0,*7D
1499526447.32,46464,18.31,74054.8,6.29,6.25,6.25,0,*74
1499526448.54,46465,18.31,74056.8,6.29,6.17,6.17,0,*75
1499526449.73,46466,18.31,74060.3,6.29,6.29,6.33,0,*7D
1499526450.96,46467,18.31,74066.3,6.29,6.13,6.13,0,*77
1499526452.2,46468,18.31,74074.0,6.35,5.93,5.99,0,*7F
1499526453.43,46469,18.31,74076.5,6.31,5.67,5.73,0,*75
1499526454.68,46470,18.31,74072.0,6.35,5.55,5.51,0,*78
1499526455.94,46471,18.31,74064.3,6.31,4.93,4.93,0,*79
1499526457.18,46472,18.31,74060.5,6.29,4.79,4.75,0,*7F
1499526458.35,46473,18.31,74050.0,6.29,4.89,4.89,0,*72
1499526459.56,46474,18.31,74044.3,6.27,4.89,4.81,0,*73
1499526460.8,46475,18.31,74044.8,6.27,5.11,5.05,0,*7F
1499526462.01,46476,18.25,74040.5,6.27,5.15,5.15,0,*79
1499526463.27,46477,18.31,74042.0,6.27,5.05,5.05,0,*78
1499526464.46,46478,18.31,74038.3,6.29,5.23,5.23,0,*79
1499526465.67,46479,18.31,74038.8,6.27,5.59,5.59,0,*76
1499526466.93,46480,18.31,74036.3,6.27,5.85,5.85,0,*70
1499526468.17,46481,18.31,74040.5,6.27,5.93,6.03,0,*7B
1499526469.4,46482,18.31,74046.5,6.29,6.13,6.17,0,*78
1499526470.63,46483,18.31,74046.8,6.31,6.17,6.11,0,*72
1499526471.82,46484,18.31,74042.5,6.29,6.03,6.07,0,*7E
1499526473.05,46485,18.31,74056.3,6.31,6.17,6.21,0,*77
1499526474.25,46486,18.31,74062.8,6.31,5.99,6.07,0,*75
1499526475.51,46487,18.31,74066.0,6.31,5.85,5.85,0,*70
1499526476.71,46488,18.31,74074.3,6.31,6.07,6.07,0,*7F
1499526477.94,46489,18.31,74074.5,6.31,5.73,5.67,0,*7B
1499526479.2,46490,18.31,74080.3,6.31,4.93,4.97,0,*72
1499526480.47,46491,18.31,74076.8,6.31,4.97,4.93,0,*73
1499526481.67,46492,18.31,74076.8,6.31,4.49,4.45,0,*78
1499526482.88,46493,18.31,74070.3,6.31,4.45,4.37,0,*70
1499526484.13,46494,18.31,74060.5,6.27,3.49,3.49,0,*75
1499526485.39,46495,18.31,74068.0,6.27,3.49,3.41,0,*7C
1499526486.64,46496,18.31,74062.3,6.23,3.79,3.89,0,*7C
1499526487.9,46497,18.31,74062.8,6.23,4.59,4.59,0,*72
1499526489.13,46498,18.31,74064.8,6.23,4.89,4.97,0,*72
1499526490.34,46499,18.31,74072.0,6.23,5.59,5.71,0,*76
1499526491.53,46500,18.31,74072.3,6.21,6.03,6.11,0,*7C
1499526492.76,46501,18.31,74078.8,6.23,6.11,6.13,0,*7E
1499526493.97,46502,18.31,74080.3,6.25,5.55,5.59,0,*75
1499526495.19,46503,18.31,74074.8,6.23,5.11,5.11,0,*7E
1499526496.43,46504,18.31,74076.5,6.23,5.01,5.07,0,*7F
1499526497.66,46505,18.31,74078.3,6.23,5.71,5.81,0,*77
1499526498.85,46506,18.31,74076.8,6.25,5.99,6.03,0,*7D
1499526500.04,46507,18.25,74072.0,6.25,5.71,5.71,0,*7C
1499526501.28,46508,18.31,74080.8,6.25,5.01,5.01,0,*73
1499526502.49,46509,18.31,74068.5,6.23,4.49,4.41,0,*7C
1499526503.76,46510,18.31,74050.8,6.23,4.71,4.63,0,*7F
1499526504.99,46511,18.31,74036.8,6.25,4.63,4.59,0,*72
1499526506.21,46512,18.31,74032.3,6.23,4.37,4.37,0,*7E
1499526507.4,46513,18.31,74024.5,6.19,4.15,4.15,0,*76
1499526508.63,46514,18.31,74040.3,6.19,3.67,3.53,0,*76
1499526509.8,46515,18.31,74028.3,6.21,3.55,3.55,0,*7B
1499526510.98,46516,18.31,74038.5,6.19,3.85,3.85,0,*73
1499526512.22,46517,18.31,74052.0,6.15,3.71,3.67,0,*79
1499526513.43,46518,18.31,74052.8,6.13,3.89,3.81,0,*7F
1499526514.68,46519,18.31,74054.8,6.09,3.97,3.97,0,*7D
1499526515.94,46520,18.31,74032.5,6.09,4.05,4.01,0,*73
1499526517.2,46521,18.31,74044.0,6.09,4.01,4.01,0,*76
1499526518.46,46522,18.31,74042.8,6.09,3.79,3.67,0,*7A
1499526519.7,46523,18.31,74042.5,6.07,3.67,3.75,0,*79
1499526520.94,46524,18.31,74042.8,6.07,3.79,3.67,0,*72
1499526522.19,46525,18.31,74044.3,6.05,3.53,3.53,0,*7E
1499526523.45,46526,18.31,74046.8,6.05,3.53,3.41,0,*7E
1499526524.71,46527,18.31,74042.3,6.01,3.45,3.45,0,*78
1499526525.89,46528,18.31,74044.5,6.03,3.85,3.85,0,*75
1499526527.1,46529,18.31,74042.3,6.01,4.15,4.15,0,*76
1499526528.31,46530,18.31,74038.5,6.01,3.85,3.81,0,*7A
1499526529.52,46531,18.31,74040.0,6.01,3.81,3.81,0,*7F
1499526530.76,46532,18.31,74048.0,6.01,4.07,4.05,0,*7E
1499526532.0,46533,18.31,74044.8,6.01,4.05,4.07,0,*7F